NOAA NWS Hourly Roundups by Site

Regional Weather Roundup for Omaha, NE

To Select Another Site Choose from List

Select Site:  

000
ASUS43 KOAX 181110
RWRNE

WEATHER ROUNDUP FOR NEBRASKA
NATIONAL WEATHER SERVICE OMAHA NE
600 AM CDT THU OCT 18 2018

NOTES: SATELLITE DATA IS BEING USED TO AUGMENT CLOUD COVER ABOVE
       12000 FEET.
       "FAIR" INDICATES FEW OR NO CLOUDS BELOW 12,000 FEET WITH NO
       SIGNIFICANT WEATHER AND/OR OBSTRUCTIONS TO VISIBILITY.


NEZ001>004-019>022-054>056-181200-
NEBRASKA PANHANDLE

CITY           SKY/WX    TMP DP  RH WIND       PRES   REMARKS
SCOTTSBLUFF    CLEAR     45  37  73 S9        30.24F
ALLIANCE       CLEAR     39  37  92 S10       30.25F WCI  32
CHADRON        CLEAR     50  37  61 S18       30.19F
GORDON         FAIR      46  37  71 S7        30.25S
KIMBALL        CLEAR     38  33  83 S7        30.28R WCI  32
SIDNEY         CLEAR     39  35  86 S14       30.30F WCI  31
$$

NEZ057>060-069>072-079>082-181200-
SOUTHWEST NEBRASKA

CITY           SKY/WX    TMP DP  RH WIND       PRES   REMARKS
NORTH PLATTE   PTCLDY    48  39  71 S10       30.36F
IMPERIAL       MOCLDY    47  36  65 S9        30.34F
LEXINGTON      CLOUDY    49  40  73 S7        30.39S
MCCOOK         PTCLDY    47  39  74 SW9       30.38F
OGALLALA       PTCLDY    42  38  84 CALM      30.34S
$$

NEZ005>010-023>029-035>040-094-181200-
NORTH CENTRAL NEBRASKA

CITY           SKY/WX    TMP DP  RH WIND       PRES   REMARKS
VALENTINE      PTCLDY    47  37  68 SW6       30.30S
AINSWORTH      PTCLDY    45  38  76 S10       30.32S
BROKEN BOW     MOCLDY    47  39  74 S7        30.37S
O`NEILL        CLEAR     43  37  77 SW3       30.35S
ORD            PTCLDY    42  36  79 CALM      30.37S
THEDFORD       MOCLDY    47  39  75 S8        30.34S
$$

NEZ041-046>049-061>064-073>077-083>087-181200-
SOUTH CENTRAL NEBRASKA

CITY           SKY/WX    TMP DP  RH WIND       PRES   REMARKS
GRAND ISLAND   CLEAR     44  37  76 S8        30.41S
AURORA         CLEAR     43  37  81 SW5       30.41S
HASTINGS       CLOUDY    47  38  71 SW5       30.42S
HEBRON         CLEAR     40  37  87 CALM      30.44S
HOLDREGE       CLOUDY    47  40  77 S6        30.41S
KEARNEY        PTCLDY    45  38  76 S7        30.41S
YORK           PTCLDY    41  37  87 SW7       30.42S
$$

NEZ011>018-030>034-042>045-181200-
NORTHEAST NEBRASKA

CITY           SKY/WX    TMP DP  RH WIND       PRES   REMARKS
NORFOLK        CLEAR     41  35  79 SW5       30.38S
ALBION         PTCLDY    46  37  70 CALM      30.39S
BLAIR          CLEAR     42  39  88 S6        30.42R
COLUMBUS       CLEAR     33  31  92 MISG      30.42R
FREMONT        CLEAR     41  39  92 CALM      30.42S
TEKAMAH        CLEAR     37  36  96 SE6       30.42R WCI  32
WAYNE          PTCLDY    36  32  85 S3        30.38S
$$

NEZ050>053-065>068-078-088>093-181200-
SOUTHEAST NEBRASKA

CITY           SKY/WX    TMP DP  RH WIND       PRES   REMARKS
LINCOLN        CLEAR     39  37  92 S6        30.44R WCI  35
OMAHA EPPLEY   CLEAR     44  38  79 S8        30.44R
BEATRICE       CLEAR     41  39  93 CALM      30.44S
FALLS CITY     CLEAR     40  37  89 SE6       30.46R
NEBRASKA CITY  CLEAR     41  37  86 S8        30.44S
PLATTSMOUTH    PTCLDY    44  41  88 SE7       30.44R
$$

NEZ044-045-051>053-067-181200-
OMAHA AREA

CITY           SKY/WX    TMP DP  RH WIND       PRES   REMARKS
OMAHA EPPLEY   CLEAR     44  38  79 S8        30.44R
BLAIR          CLEAR     42  39  88 S6        30.42R
FREMONT        CLEAR     41  39  92 CALM      30.42S
MILLARD        CLEAR     40  39  97 CALM      30.43S
OFFUTT AFB     CLEAR     39  39 100 CALM      30.43R
PLATTSMOUTH    PTCLDY    44  41  88 SE7       30.44R
WAHOO            N/A     38  38  99 CALM      30.42S FOG
$$


 

View Past Reports for Omaha, NE.

Products Courtesy of NOAA-NWS
NWS Information Parsing Script by Ken True at Saratoga Weather - Script by SE Lincoln Weather.